Regional Weather Roundup
Issued by NWS Wakefield, VA

Home | Current Version | Previous Version | Text Only | Print | Product List | Glossary Off
Versions: 1 2 3 4 5 6 7 8 9 10 11 12 13 14 15 16 17 18 19 20 21 22 23 24 25 26 27 28 29 30 31 32 33 34 35 36 37 38 39 40 41 42 43 44 45 46 47 48 49 50

222
ASUS41 KAKQ 260515
RWRAKQ

REGIONAL WEATHER ROUNDUP
NATIONAL WEATHER SERVICE WAKEFIELD VA
100 AM EDT WED JUL 26 2017

Note: "fair" indicates few or no clouds below 12,000 feet with no
significant weather and/or obstructions to visibility. * = Denotes
station may not report precipitation (e.g., rain,snow,etc.),
thunder or fog.

VAZ042-051-052>054-056-260600-
NORTHERN VIRGINIA

CITY           SKY/WX    TMP DP  RH WIND       PRES   REMARKS
WASH NATIONAL  PTCLDY    74  63  68 NE8       30.20S
DULLES         CLEAR     65  61  87 CALM      30.21S
FORT BELVOIR   CLEAR     65  62  90 CALM      30.19F
QUANTICO       CLEAR     70  64  81 NW5       30.20F
FREDERICKSBRG* CLEAR     68  63  83 CALM      30.19S
STAFFORD*      CLEAR     60  60 100 CALM      30.24S
WARRENTON      CLEAR     60  57  88 CALM      30.21S
CULPEPER*      CLEAR     63  61  95 CALM      30.22S
MANASSAS*      CLEAR     63  61  93 CALM      30.21S
LEESBURG*      CLEAR     64  64 100 CALM      30.22S
WINCHESTER     CLEAR     59  55  88 CALM      30.23R
FRONT ROYAL*   CLEAR     61  59  94 CALM      30.23S
LURAY*         MOCLDY    63  59  88 CALM      30.23S
$$

VAZ048-049-060>072-079>083-260600-
CENTRAL AND SOUTH CENTRAL VIRGINIA

CITY           SKY/WX    TMP DP  RH WIND       PRES   REMARKS
RICHMOND       MOCLDY    70  63  78 N7        30.18S
CHESTERFIELD*  NOT AVBL
PETERSBURG*    CLEAR     63  60  89 CALM      30.18S
HANOVER        PTCLDY    68  61  78 CALM      30.20R
TAPPAHANNOCK*  CLEAR     68  66  95 CALM      30.18F
QUINTON*       MOCLDY    67  66  97 CALM      30.18S
CHARLOTTSVILLE CLEAR     67  61  81 NW3       30.22R
GORDONSVILLE*  CLOUDY    65  62  87 CALM      30.21R
ORANGE*        CLEAR     63  59  88 CALM      30.21S
LOUISA*        MOCLDY    68  59  73 CALM      30.20S
BUMPASS*       MOCLDY    70  61  72 CALM      30.20S
FARMVILLE*     PTCLDY    69  59  72 N3        30.18F
CREWE*         FAIR      66  62  86 N3        30.19R
FORT PICKETT*  FAIR      67  59  75 NE3       30.18S
CHASE CITY*    FAIR      71  63  76 CALM      30.17S
CLARKSVILLE*   MOCLDY    73  64  73 E9        30.16S
SOUTH HILL*    CLEAR     69  65  88 CALM      30.22S
LAWRENCEVILLE* FAIR      69  65  86 CALM      30.17S
EMPORIA*       CLEAR     63  63 100 CALM      30.18R
$$

VAZ088>098-260600-
SOUTHEAST VIRGINIA

CITY           SKY/WX    TMP DP  RH WIND       PRES   REMARKS
NORFOLK        CLEAR     73  68  84 E6        30.15F
VIRGINIA BEACH PTCLDY    70  65  84 E3        30.15S
NORFOLK NAVAL  PTCLDY    74  66  76 E6        30.17S
WEST POINT*    MOCLDY    69  63  80 CALM      30.19R
SALUDA*        FAIR      73  68  84 S3        30.16S
NEWPORT NEWS   PTCLDY    69  65  86 CALM      30.17S
LANGLEY AFB    CLEAR     73  66  79 E6        30.16S
FORT EUSTIS    CLEAR     73  66  78 E5        30.14S
WILLIAMSBURG*  CLEAR     72  66  83 CALM      30.17F
HR EXEC AP*    FAIR      64  61  88 NE5       30.14F
FRANKLIN*      CLEAR     66  63  88 CALM      30.16S
US460-WAKEFLD  NOT AVBL
$$

VAZ020-022-025-037-045-260600-
WEST CENTRAL AND SOUTHWEST VIRGINIA

CITY           SKY/WX    TMP DP  RH WIND       PRES   REMARKS
STAUNTON*      PTCLDY    62  57  82 CALM      30.26S
WAYNESBORO*    CLEAR     64  60  85 CALM      30.25S
HOT SPRINGS VA CLEAR     59  54  82 E8        30.32F
LYNCHBURG      CLEAR     69  59  70 NE8       30.22R
DANVILLE       PTCLDY    72  66  81 NE8       30.16R
SOUTH BOSTON*  MOCLDY    73  61  65 NE6       30.17R
MARTINSVILLE   CLEAR     69  64  84 CALM      30.21R
ROANOKE        CLEAR     71  61  70 SE6       30.23S
BLACKSBURG     CLEAR     69  59  72 E6        30.27R
DUBLIN*        CLEAR     65  55  71 NE5       30.25R
MARION*        CLEAR     63  59  88 CALM      30.28S
HILLSVILLE*    PTCLDY    67  54  63 CALM      30.24S
RICHLANDS*     FAIR      67  59  75 CALM      30.24S
WISE*          PTCLDY    68  61  77 NW3       30.24F
ABINGDON*      CLEAR     71  64  77 E3        30.20F
$$

MDZ021>025-VAZ099-100-260600-
SOUTHERN MARYLAND AND THE DELMARVA PENINSULA

CITY           SKY/WX    TMP DP  RH WIND       PRES   REMARKS
PATUXENT RIVER MOCLDY    74  68  81 E8        30.17S
BAY BRIDGE APT CLEAR     72  63  73 NE5       30.19R
LEONARDTOWN    CLOUDY    70  63  78 CALM      30.19S
DOVER          MOCLDY    70  70 100 E5        30.18S
GEORGETOWN     MOCLDY    69  65  86 CALM      30.19S
EASTON         CLEAR     70  66  88 CALM      30.23R
CAMBRIDGE      PTCLDY    68  66  94 CALM      30.18S
SALISBURY      CLEAR     67  67 100 E3        30.18S
OCEAN CITY     MOCLDY    70  67  90 CALM      30.18S
WALLOPS ISLAND CLEAR     73  68  84 E7        30.17F
ACCOMACK*      CLEAR     71  67  88 CALM      30.17S
$$

NCZ012>017-030>032-260600-
NORTH CENTRAL AND EASTERN NORTH CAROLINA

CITY           SKY/WX    TMP DP  RH WIND       PRES   REMARKS
ROANOKE RAPIDS FAIR      70  64  83 CALM      30.15F
RALEIGH        PTCLDY    78  72  81 E9        30.13S
ELIZABETH CITY CLEAR     73  68  84 NE9       30.15S
AHOSKIE*         N/A     68  66  93 CALM      30.16S
EDENTON*       CLEAR     72  67  83 CALM      30.15S
CURRITUCK*     CLEAR     75  66  75 NE7       30.15F
KILL DEVIL HLS CLEAR     74  66  75 CALM      30.13S
MANTEO         CLEAR     74  66  75 NE9       30.14S
CAPE HATTERAS  PTCLDY    77  68  73 NE8       30.12F
TARBORO*       NOT AVBL
GOLDSBORO      CLOUDY    75  70  83 E12       30.11S
WASHINGTON     CLEAR     72  66  83 CALM      30.14F
GREENVILLE     PTCLDY    73  68  83 E3        30.15F
NEW BERN       CLOUDY    76  69  79 NE10      30.13F
WILMINGTON     CLOUDY    78  76  93 CALM      30.08S
$$

VAZ048-260600-
ELSEWHERE

CITY           SKY/WX    TMP DP  RH WIND       PRES   REMARKS
HARRISBURG PA  MOCLDY    69  59  70 NW6       30.21S
BALTIMORE      PTCLDY    68  63  84 N3        30.19S
ANNAPOLIS      CLEAR     73  68  84 N7        30.18S
ANDREWS AFB    CLEAR     67  61  78 N5        30.19S
PHILADELPHIA   CLOUDY    68  64  87 E7        30.22R
HENDERSON NC   MOCLDY    73  65  75 E14       30.16R
GREENSBORO     PTCLDY    74  68  81 CALM      30.13S
ROCKY MOUNT    PTCLDY    74  68  81 NE5       30.14S
$$

VAZ100-260600-
MARINE

STATION/POSITION TIME  TEMP    WIND        PRES    WAVE   SWELL
                       AIR SEA DIR/SP/G            HT/PER HT/PER
                 (UTC) (F)     (DEG/KT/KT) (MB)    (FT/S) (FT/S)
BRANDYWINE LGT   0448           90/ 10/ 12   N/A
CAPE MAY NJ      0448   72 75   80/  4/  7 1021.8R
LEWES DE         0448   73 77  100/  9/ 11 1021.9R
15NM E FENWICK I 0450   74 75   60/  8/ 12 1022.2S   4/ 6   3/ 6
OCEAN-CITY-INLET 0448   72 71  100/  3/  4 1022.2F
WACHAPREAGUE VA  0448   74 80   50/ 10/ 11 1021.3F
THOMAS POINT MD  0500   74 82  340/  8/ 10   N/A
GOOSES REEF MD   0500   76 82   90/  8/ 12 1022.6    2/ 3
COVE POINT MD    0448   74     130/  7/  9 1022.5S
SOLOMONS ISLAND  0448   75 84   30/  5/  6   N/A
BISHOPS HEAD MD  0448   74 80  110/  9/ 10 1021.8S
PINEY POINT MD   0448           30/  7/  8   N/A
CAMBRIDGE MD     0448   72 85              1022.8R
LEWISETTA VA     0448   77 83  120/  8/ 10 1021.3F
RAPPAHANNOCK LGT 0448           80/  9/ 11 1022.0F
STINGRAY PT      0500   77 83  120/ 12/ 14 1021.2    1/ 3
YORK RVR RNG VA  0448   76     110/ 11/ 13 1021.7S
YORKTOWN VA      0448   76 82  120/  7/  8 1021.0F
JAMESTOWN VA     0500      86   80/  4/  4   N/A     0
DOMINION TERM VA 0448   76     360/  1/  4 1021.2F
KIPTOPEKE VA     0448      77   80/  3/  4   N/A
CHES BAY BRIDGE  0448   73 75   70/  9/ 10 1021.1S
CAPE HENRY VA    0448   72      50/  7/  8   N/A
WILLOUBY STN VA  0448   75      80/ 10/ 11 1021.1F
S CRANEY ISL VA  0448   75      80/  6/  8 1021.0S
CAPE HENRY BUOY  0500      71                N/A     2/11
1ST LANDING BUOY 0500   72 73              1021.2    1
64NM E OF VA BCH 0450   76 78   50/ 14/ 16 1021.0R   3/ 6   2/ 6
DUCK PIER NC     0448   74 75   20/  8/  9 1020.3F
44100 DUCK FRF   0405      77                N/A     3/ 5
44056 DUCK FRF   0430      74                N/A     2/ 5
OREGON INLET NC  0448           20/  6/  8   N/A
HATTERAS NC      0448   77 79   60/  6/ 10 1020.0S
DIAMOND SHLS NC  0450   80 84   40/ 16/ 17 1019.5R   3/ 5   2/10
CAPE LOOKOUT NC  0500   79      50/ 19/ 21 1019.4R
$$




USA.gov is the U.S. government's official web portal to all federal, state and local government web resources and services.